Time,TemperatureF,DewpointF,PressureIn,WindDirection,WindDirectionDegrees,WindSpeedMPH,WindSpeedGustMPH,Humidity,HourlyPrecipIn,Conditions,Clouds,dailyrainin,SoftwareType,DateUTC
2013-02-14 00:00:00,56.9,46.1,30.08,ENE,57,7.0,7.0,67,0.00,,,0.00,Wunderground v.1.15,2013-02-14 07:00:00,
2013-02-14 00:05:00,57.0,46.5,30.08,ENE,66,7.0,8.0,68,0.00,,,0.00,Wunderground v.1.15,2013-02-14 07:05:00,
2013-02-14 00:15:00,56.7,46.6,30.08,ENE,63,7.0,10.0,69,0.00,,,0.00,Wunderground v.1.15,2013-02-14 07:15:00,
2013-02-14 00:20:00,56.7,46.6,30.08,ENE,58,7.0,10.0,69,0.00,,,0.00,Wunderground v.1.15,2013-02-14 07:20:00,
2013-02-14 00:25:00,56.6,46.5,30.08,NE,47,7.0,10.0,69,0.00,,,0.00,Wunderground v.1.15,2013-02-14 07:25:00,
2013-02-14 00:35:00,55.2,46.0,30.08,NNE,23,4.0,10.0,71,0.00,,,0.00,Wunderground v.1.15,2013-02-14 07:35:00,
2013-02-14 00:40:00,54.3,45.8,30.08,NNW,334,3.0,10.0,73,0.00,,,0.00,Wunderground v.1.15,2013-02-14 07:40:00,
2013-02-14 00:45:00,53.7,45.2,30.09,NNW,336,3.0,10.0,73,0.00,,,0.00,Wunderground v.1.15,2013-02-14 07:45:00,
2013-02-14 00:50:00,52.9,44.8,30.08,North,351,2.0,10.0,74,0.00,,,0.00,Wunderground v.1.15,2013-02-14 07:50:00,
2013-02-14 00:55:00,52.4,45.1,30.08,NNW,329,2.0,10.0,76,0.00,,,0.00,Wunderground v.1.15,2013-02-14 07:55:00,
2013-02-14 01:00:00,52.2,45.2,30.08,North,358,3.0,10.0,77,0.00,,,0.00,Wunderground v.1.15,2013-02-14 08:00:00,
2013-02-14 01:05:00,52.0,45.0,30.08,North,358,3.0,10.0,77,0.00,,,0.00,Wunderground v.1.15,2013-02-14 08:05:00,
2013-02-14 01:15:00,51.5,44.9,30.08,North,352,2.0,4.0,78,0.00,,,0.00,Wunderground v.1.15,2013-02-14 08:15:00,
2013-02-14 01:20:00,51.4,44.8,30.07,North,4,3.0,4.0,78,0.00,,,0.00,Wunderground v.1.15,2013-02-14 08:20:00,
2013-02-14 01:25:00,51.2,44.6,30.07,North,8,3.0,4.0,78,0.00,,,0.00,Wunderground v.1.15,2013-02-14 08:25:00,
2013-02-14 01:30:00,50.9,44.6,30.07,NNW,344,3.0,3.0,79,0.00,,,0.00,Wunderground v.1.15,2013-02-14 08:30:00,
2013-02-14 01:40:00,50.8,44.9,30.07,North,354,3.0,4.0,80,0.00,,,0.00,Wunderground v.1.15,2013-02-14 08:40:00,
2013-02-14 01:45:00,50.8,44.5,30.06,NNW,345,3.0,4.0,79,0.00,,,0.00,Wunderground v.1.15,2013-02-14 08:45:00,
2013-02-14 01:50:00,50.7,44.4,30.07,NNW,346,3.0,3.0,79,0.00,,,0.00,Wunderground v.1.15,2013-02-14 08:50:00,
2013-02-14 01:55:00,50.6,44.7,30.06,North,357,3.0,4.0,80,0.00,,,0.00,Wunderground v.1.15,2013-02-14 08:55:00,
2013-02-14 02:00:00,50.5,44.2,30.06,NNW,335,2.0,4.0,79,0.00,,,0.00,Wunderground v.1.15,2013-02-14 09:00:00,
2013-02-14 02:05:00,50.1,44.2,30.06,North,351,2.0,4.0,80,0.00,,,0.00,Wunderground v.1.15,2013-02-14 09:05:00,
2013-02-14 02:15:00,50.2,44.6,30.06,North,354,3.0,4.0,81,0.00,,,0.00,Wunderground v.1.15,2013-02-14 09:15:00,
2013-02-14 02:20:00,50.1,44.5,30.06,NNW,334,3.0,4.0,81,0.00,,,0.00,Wunderground v.1.15,2013-02-14 09:20:00,
2013-02-14 02:25:00,50.1,44.8,30.06,NNW,330,3.0,4.0,82,0.00,,,0.00,Wunderground v.1.15,2013-02-14 09:25:00,
2013-02-14 02:30:00,49.8,44.5,30.06,NNW,333,3.0,4.0,82,0.00,,,0.00,Wunderground v.1.15,2013-02-14 09:30:00,
2013-02-14 02:35:00,49.8,45.2,30.06,NNW,328,4.0,4.0,84,0.00,,,0.00,Wunderground v.1.15,2013-02-14 09:35:00,
2013-02-14 02:45:00,49.8,45.2,30.06,NW,319,3.0,4.0,84,0.00,,,0.00,Wunderground v.1.15,2013-02-14 09:45:00,
2013-02-14 02:50:00,50.0,45.4,30.06,NNW,331,3.0,4.0,84,0.00,,,0.00,Wunderground v.1.15,2013-02-14 09:50:00,
2013-02-14 02:55:00,50.0,45.4,30.06,NNW,336,3.0,4.0,84,0.00,,,0.00,Wunderground v.1.15,2013-02-14 09:55:00,
2013-02-14 03:00:00,49.9,45.3,30.06,NNW,347,3.0,4.0,84,0.00,,,0.00,Wunderground v.1.15,2013-02-14 10:00:00,
2013-02-14 03:05:00,49.8,45.5,30.05,NNW,348,3.0,4.0,85,0.00,,,0.00,Wunderground v.1.15,2013-02-14 10:05:00,
2013-02-14 03:15:00,49.6,45.6,30.05,NNE,15,3.0,4.0,86,0.00,,,0.00,Wunderground v.1.15,2013-02-14 10:15:00,
2013-02-14 03:20:00,49.7,45.7,30.05,NNE,18,3.0,4.0,86,0.00,,,0.00,Wunderground v.1.15,2013-02-14 10:20:00,
2013-02-14 03:25:00,49.7,45.7,30.06,NNW,336,3.0,4.0,86,0.00,,,0.00,Wunderground v.1.15,2013-02-14 10:25:00,
2013-02-14 03:30:00,49.8,45.8,30.06,NNW,345,3.0,3.0,86,0.00,,,0.00,Wunderground v.1.15,2013-02-14 10:30:00,
2013-02-14 03:35:00,49.9,45.9,30.06,NNW,343,2.0,4.0,86,0.00,,,0.00,Wunderground v.1.15,2013-02-14 10:35:00,
2013-02-14 03:40:00,49.9,46.2,30.06,NNW,339,2.0,2.0,87,0.00,,,0.00,Wunderground v.1.15,2013-02-14 10:40:00,
2013-02-14 03:50:00,49.8,45.8,30.07,NNW,331,2.0,4.0,86,0.00,,,0.00,Wunderground v.1.15,2013-02-14 10:50:00,
2013-02-14 03:55:00,49.5,45.8,30.06,North,349,2.0,4.0,87,0.00,,,0.00,Wunderground v.1.15,2013-02-14 10:55:00,
2013-02-14 04:00:00,49.4,46.0,30.07,NNW,348,3.0,4.0,88,0.00,,,0.00,Wunderground v.1.15,2013-02-14 11:00:00,
2013-02-14 04:05:00,49.2,45.8,30.07,North,4,3.0,4.0,88,0.00,,,0.00,Wunderground v.1.15,2013-02-14 11:05:00,
2013-02-14 04:15:00,49.1,46.0,30.07,North,351,3.0,4.0,89,0.00,,,0.00,Wunderground v.1.15,2013-02-14 11:15:00,
2013-02-14 04:20:00,49.3,46.2,30.07,NNE,15,3.0,4.0,89,0.00,,,0.00,Wunderground v.1.15,2013-02-14 11:20:00,
2013-02-14 04:25:00,49.3,46.2,30.07,North,6,4.0,4.0,89,0.00,,,0.00,Wunderground v.1.15,2013-02-14 11:25:00,
2013-02-14 04:30:00,49.1,46.0,30.07,North,357,4.0,5.0,89,0.00,,,0.00,Wunderground v.1.15,2013-02-14 11:30:00,
2013-02-14 04:35:00,48.9,45.8,30.07,North,4,4.0,5.0,89,0.00,,,0.00,Wunderground v.1.15,2013-02-14 11:35:00,
2013-02-14 04:40:00,48.9,46.1,30.07,NNE,13,5.0,5.0,90,0.00,,,0.00,Wunderground v.1.15,2013-02-14 11:40:00,
2013-02-14 04:45:00,48.9,45.8,30.07,NNE,12,5.0,5.0,89,0.00,,,0.00,Wunderground v.1.15,2013-02-14 11:45:00,
2013-02-14 04:55:00,48.7,45.6,30.07,NNW,344,3.0,4.0,89,0.00,,,0.00,Wunderground v.1.15,2013-02-14 11:55:00,
2013-02-14 05:00:00,48.6,45.8,30.07,North,352,3.0,4.0,90,0.00,,,0.00,Wunderground v.1.15,2013-02-14 12:00:00,
2013-02-14 05:05:00,48.5,45.7,30.07,NNW,345,3.0,4.0,90,0.00,,,0.00,Wunderground v.1.15,2013-02-14 12:05:00,
2013-02-14 05:15:00,48.4,45.6,30.08,North,354,3.0,4.0,90,0.00,,,0.00,Wunderground v.1.15,2013-02-14 12:15:00,
2013-02-14 05:20:00,48.2,45.4,30.07,NNE,13,3.0,4.0,90,0.00,,,0.00,Wunderground v.1.15,2013-02-14 12:20:00,
2013-02-14 05:25:00,48.1,45.6,30.08,NNE,19,4.0,4.0,91,0.00,,,0.00,Wunderground v.1.15,2013-02-14 12:25:00,
2013-02-14 05:30:00,48.0,45.2,30.08,NNE,13,4.0,4.0,90,0.00,,,0.00,Wunderground v.1.15,2013-02-14 12:30:00,
2013-02-14 05:35:00,48.1,45.6,30.08,NNE,16,4.0,4.0,91,0.00,,,0.00,Wunderground v.1.15,2013-02-14 12:35:00,
2013-02-14 05:40:00,48.2,45.7,30.08,NNW,336,3.0,3.0,91,0.00,,,0.00,Wunderground v.1.15,2013-02-14 12:40:00,
2013-02-14 05:45:00,48.2,45.7,30.08,NNW,346,3.0,4.0,91,0.00,,,0.00,Wunderground v.1.15,2013-02-14 12:45:00,
2013-02-14 05:50:00,48.3,45.8,30.08,North,354,3.0,4.0,91,0.00,,,0.00,Wunderground v.1.15,2013-02-14 12:50:00,
2013-02-14 06:00:00,48.0,45.2,30.08,North,1,3.0,4.0,90,0.00,,,0.00,Wunderground v.1.15,2013-02-14 13:00:00,
2013-02-14 06:05:00,48.0,45.5,30.08,NNW,339,3.0,5.0,91,0.00,,,0.00,Wunderground v.1.15,2013-02-14 13:05:00,
2013-02-14 06:15:00,48.2,45.7,30.09,NNE,12,3.0,5.0,91,0.00,,,0.00,Wunderground v.1.15,2013-02-14 13:15:00,
2013-02-14 06:20:00,48.3,45.8,30.09,NNW,330,4.0,4.0,91,0.00,,,0.00,Wunderground v.1.15,2013-02-14 13:20:00,
2013-02-14 06:25:00,48.3,45.8,30.09,NW,326,3.0,5.0,91,0.00,,,0.00,Wunderground v.1.15,2013-02-14 13:25:00,
2013-02-14 06:30:00,48.6,46.1,30.10,NW,326,3.0,3.0,91,0.00,,,0.00,Wunderground v.1.15,2013-02-14 13:30:00,
2013-02-14 06:35:00,49.0,46.5,30.10,North,351,2.0,5.0,91,0.00,,,0.00,Wunderground v.1.15,2013-02-14 13:35:00,
2013-02-14 06:40:00,49.2,46.7,30.10,NNW,345,2.0,5.0,91,0.00,,,0.00,Wunderground v.1.15,2013-02-14 13:40:00,
2013-02-14 06:45:00,49.5,47.0,30.10,NNW,345,3.0,5.0,91,0.00,,,0.00,Wunderground v.1.15,2013-02-14 13:45:00,
2013-02-14 06:50:00,49.8,47.3,30.10,North,4,3.0,5.0,91,0.00,,,0.00,Wunderground v.1.15,2013-02-14 13:50:00,
2013-02-14 06:55:00,50.3,47.8,30.10,NNE,16,3.0,5.0,91,0.00,,,0.00,Wunderground v.1.15,2013-02-14 13:55:00,
2013-02-14 07:05:00,51.2,48.7,30.10,NNE,30,2.0,5.0,91,0.00,,,0.00,Wunderground v.1.15,2013-02-14 14:05:00,
2013-02-14 07:15:00,52.3,49.8,30.11,NE,39,2.0,4.0,91,0.00,,,0.00,Wunderground v.1.15,2013-02-14 14:15:00,
2013-02-14 07:20:00,53.1,50.2,30.11,NNE,19,3.0,4.0,90,0.00,,,0.00,Wunderground v.1.15,2013-02-14 14:20:00,
2013-02-14 07:25:00,53.7,50.8,30.11,NNE,18,3.0,4.0,90,0.00,,,0.00,Wunderground v.1.15,2013-02-14 14:25:00,
2013-02-14 07:30:00,54.3,51.1,30.11,NNE,27,3.0,4.0,89,0.00,,,0.00,Wunderground v.1.15,2013-02-14 14:30:00,
2013-02-14 07:40:00,55.2,51.4,30.11,NNE,33,5.0,5.0,87,0.00,,,0.00,Wunderground v.1.15,2013-02-14 14:40:00,
2013-02-14 07:45:00,56.0,51.2,30.11,North,351,5.0,5.0,84,0.00,,,0.00,Wunderground v.1.15,2013-02-14 14:45:00,
2013-02-14 07:50:00,56.6,51.8,30.12,NE,43,4.0,5.0,84,0.00,,,0.00,Wunderground v.1.15,2013-02-14 14:50:00,
2013-02-14 07:55:00,56.9,50.8,30.12,NE,41,5.0,7.0,80,0.00,,,0.00,Wunderground v.1.15,2013-02-14 14:55:00,
2013-02-14 08:00:00,57.1,50.6,30.12,East,91,7.0,7.0,79,0.00,,,0.00,Wunderground v.1.15,2013-02-14 15:00:00,
2013-02-14 08:05:00,57.5,50.7,30.12,NE,47,7.0,10.0,78,0.00,,,0.00,Wunderground v.1.15,2013-02-14 15:05:00,
2013-02-14 08:15:00,57.6,50.8,30.12,NE,41,8.0,10.0,78,0.00,,,0.00,Wunderground v.1.15,2013-02-14 15:15:00,
2013-02-14 08:20:00,57.7,50.5,30.13,ENE,62,8.0,8.0,77,0.00,,,0.00,Wunderground v.1.15,2013-02-14 15:20:00,
2013-02-14 08:25:00,57.8,50.6,30.13,NE,35,8.0,10.0,77,0.00,,,0.00,Wunderground v.1.15,2013-02-14 15:25:00,
2013-02-14 08:30:00,57.8,49.9,30.13,ENE,58,8.0,8.0,75,0.00,,,0.00,Wunderground v.1.15,2013-02-14 15:30:00,
2013-02-14 08:40:00,57.9,50.4,30.13,NNE,31,9.0,9.0,76,0.00,,,0.00,Wunderground v.1.15,2013-02-14 15:40:00,
2013-02-14 08:45:00,58.2,50.3,30.13,NE,46,9.0,10.0,75,0.00,,,0.00,Wunderground v.1.15,2013-02-14 15:45:00,
2013-02-14 08:50:00,58.3,50.4,30.13,NE,46,9.0,10.0,75,0.00,,,0.00,Wunderground v.1.15,2013-02-14 15:50:00,
2013-02-14 08:55:00,58.6,50.7,30.13,ENE,60,9.0,10.0,75,0.00,,,0.00,Wunderground v.1.15,2013-02-14 15:55:00,
2013-02-14 09:00:00,58.6,50.0,30.13,NE,42,8.0,10.0,73,0.00,,,0.00,Wunderground v.1.15,2013-02-14 16:00:00,
2013-02-14 09:05:00,58.5,50.6,30.13,NE,48,8.0,11.0,75,0.00,,,0.00,Wunderground v.1.15,2013-02-14 16:05:00,
2013-02-14 09:15:00,58.7,50.4,30.12,ENE,60,9.0,13.0,74,0.00,,,0.00,Wunderground v.1.15,2013-02-14 16:15:00,
2013-02-14 09:20:00,58.7,50.1,30.12,NE,39,8.0,13.0,73,0.00,,,0.00,Wunderground v.1.15,2013-02-14 16:20:00,
2013-02-14 09:25:00,59.1,49.7,30.12,NE,53,8.0,13.0,71,0.00,,,0.00,Wunderground v.1.15,2013-02-14 16:25:00,
2013-02-14 09:30:00,59.2,49.8,30.12,NE,40,8.0,8.0,71,0.00,,,0.00,Wunderground v.1.15,2013-02-14 16:30:00,
2013-02-14 09:35:00,59.4,50.0,30.13,NE,54,8.0,13.0,71,0.00,,,0.00,Wunderground v.1.15,2013-02-14 16:35:00,
2013-02-14 09:40:00,59.5,49.7,30.13,NE,40,8.0,13.0,70,0.00,,,0.00,Wunderground v.1.15,2013-02-14 16:40:00,
2013-02-14 09:50:00,59.8,49.6,30.13,ENE,60,8.0,8.0,69,0.00,,,0.00,Wunderground v.1.15,2013-02-14 16:50:00,
2013-02-14 09:55:00,59.8,49.6,30.12,NE,49,8.0,10.0,69,0.00,,,0.00,Wunderground v.1.15,2013-02-14 16:55:00,
2013-02-14 10:00:00,59.8,49.2,30.13,NE,56,8.0,8.0,68,0.00,,,0.00,Wunderground v.1.15,2013-02-14 17:00:00,
2013-02-14 10:05:00,60.2,49.6,30.13,NE,50,7.0,11.0,68,0.00,,,0.00,Wunderground v.1.15,2013-02-14 17:05:00,
2013-02-14 10:15:00,60.9,50.3,30.12,ENE,67,8.0,11.0,68,0.00,,,0.00,Wunderground v.1.15,2013-02-14 17:15:00,
2013-02-14 10:25:00,60.9,49.5,30.12,NE,51,8.0,11.0,66,0.00,,,0.00,Wunderground v.1.15,2013-02-14 17:25:00,
2013-02-14 10:30:00,60.8,49.4,30.12,ENE,61,8.0,11.0,66,0.00,,,0.00,Wunderground v.1.15,2013-02-14 17:30:00,
2013-02-14 10:35:00,60.8,49.0,30.11,NE,47,8.0,11.0,65,0.00,,,0.00,Wunderground v.1.15,2013-02-14 17:35:00,
2013-02-14 10:40:00,61.0,49.1,30.12,ENE,60,6.0,11.0,65,0.00,,,0.00,Wunderground v.1.15,2013-02-14 17:40:00,
2013-02-14 10:45:00,61.0,49.1,30.11,East,88,5.0,11.0,65,0.00,,,0.00,Wunderground v.1.15,2013-02-14 17:45:00,
2013-02-14 10:55:00,61.5,50.0,30.11,ESE,110,5.0,11.0,66,0.00,,,0.00,Wunderground v.1.15,2013-02-14 17:55:00,
2013-02-14 11:00:00,61.3,49.4,30.11,ESE,113,6.0,11.0,65,0.00,,,0.00,Wunderground v.1.15,2013-02-14 18:00:00,
2013-02-14 11:05:00,61.4,49.5,30.11,ESE,119,5.0,11.0,65,0.00,,,0.00,Wunderground v.1.15,2013-02-14 18:05:00,
2013-02-14 11:15:00,61.1,49.2,30.11,SE,139,6.0,9.0,65,0.00,,,0.00,Wunderground v.1.15,2013-02-14 18:15:00,
2013-02-14 11:20:00,61.0,48.7,30.11,ENE,63,6.0,9.0,64,0.00,,,0.00,Wunderground v.1.15,2013-02-14 18:20:00,
2013-02-14 11:30:00,61.1,49.2,30.11,SE,136,6.0,6.0,65,0.00,,,0.00,Wunderground v.1.15,2013-02-14 18:30:00,
2013-02-14 11:35:00,61.1,49.7,30.10,ESE,118,6.0,9.0,66,0.00,,,0.00,Wunderground v.1.15,2013-02-14 18:35:00,
2013-02-14 11:40:00,61.1,49.7,30.10,ESE,106,6.0,9.0,66,0.00,,,0.00,Wunderground v.1.15,2013-02-14 18:40:00,
2013-02-14 11:45:00,61.0,49.6,30.10,ESE,120,6.0,9.0,66,0.00,,,0.00,Wunderground v.1.15,2013-02-14 18:45:00,
2013-02-14 11:50:00,61.0,49.6,30.10,East,82,6.0,6.0,66,0.00,,,0.00,Wunderground v.1.15,2013-02-14 18:50:00,
2013-02-14 12:00:00,61.2,49.7,30.09,East,92,5.0,5.0,66,0.00,,,0.00,Wunderground v.1.15,2013-02-14 19:00:00,
2013-02-14 12:05:00,61.1,50.1,30.09,ESE,114,6.0,6.0,67,0.00,,,0.00,Wunderground v.1.15,2013-02-14 19:05:00,
2013-02-14 12:15:00,61.7,51.0,30.08,ESE,111,5.0,8.0,68,0.00,,,0.00,Wunderground v.1.15,2013-02-14 19:15:00,
2013-02-14 12:20:00,61.4,50.3,30.08,East,94,5.0,8.0,67,0.00,,,0.00,Wunderground v.1.15,2013-02-14 19:20:00,
2013-02-14 12:30:00,61.3,50.2,30.07,ESE,103,6.0,6.0,67,0.00,,,0.00,Wunderground v.1.15,2013-02-14 19:30:00,
2013-02-14 12:35:00,61.4,50.3,30.07,ESE,121,5.0,8.0,67,0.00,,,0.00,Wunderground v.1.15,2013-02-14 19:35:00,
2013-02-14 12:45:00,61.7,51.0,30.06,East,92,5.0,8.0,68,0.00,,,0.00,Wunderground v.1.15,2013-02-14 19:45:00,
2013-02-14 12:50:00,61.5,50.0,30.06,ESE,103,5.0,8.0,66,0.00,,,0.00,Wunderground v.1.15,2013-02-14 19:50:00,
2013-02-14 12:55:00,61.4,50.3,30.06,East,99,6.0,8.0,67,0.00,,,0.00,Wunderground v.1.15,2013-02-14 19:55:00,
2013-02-14 13:00:00,61.3,49.8,30.06,SE,130,6.0,6.0,66,0.00,,,0.00,Wunderground v.1.15,2013-02-14 20:00:00,
2013-02-14 13:05:00,61.5,49.2,30.06,East,101,6.0,7.0,64,0.00,,,0.00,Wunderground v.1.15,2013-02-14 20:05:00,
2013-02-14 13:15:00,61.5,50.0,30.05,SE,129,6.0,11.0,66,0.00,,,0.00,Wunderground v.1.15,2013-02-14 20:15:00,
2013-02-14 13:20:00,61.4,49.5,30.05,East,96,6.0,11.0,65,0.00,,,0.00,Wunderground v.1.15,2013-02-14 20:20:00,
2013-02-14 13:30:00,61.2,50.2,30.04,NE,46,6.0,11.0,67,0.00,,,0.00,Wunderground v.1.15,2013-02-14 20:30:00,
2013-02-14 13:35:00,61.5,50.0,30.04,ESE,108,5.0,11.0,66,0.00,,,0.00,Wunderground v.1.15,2013-02-14 20:35:00,
2013-02-14 13:40:00,61.4,50.3,30.04,ESE,109,5.0,5.0,67,0.00,,,0.00,Wunderground v.1.15,2013-02-14 20:40:00,
2013-02-14 13:45:00,61.4,49.9,30.04,ESE,106,5.0,11.0,66,0.00,,,0.00,Wunderground v.1.15,2013-02-14 20:45:00,
2013-02-14 13:50:00,61.4,50.3,30.04,East,85,6.0,6.0,67,0.00,,,0.00,Wunderground v.1.15,2013-02-14 20:50:00,
2013-02-14 14:00:00,61.5,50.0,30.03,South,182,6.0,6.0,66,0.00,,,0.00,Wunderground v.1.15,2013-02-14 21:00:00,
2013-02-14 14:05:00,61.5,49.6,30.03,SE,143,6.0,10.0,65,0.00,,,0.00,Wunderground v.1.15,2013-02-14 21:05:00,
2013-02-14 14:15:00,61.4,49.5,30.03,East,99,6.0,10.0,65,0.00,,,0.00,Wunderground v.1.15,2013-02-14 21:15:00,
2013-02-14 14:20:00,61.4,49.5,30.03,ESE,105,6.0,10.0,65,0.00,,,0.00,Wunderground v.1.15,2013-02-14 21:20:00,
2013-02-14 14:25:00,61.5,50.0,30.03,ESE,109,6.0,10.0,66,0.00,,,0.00,Wunderground v.1.15,2013-02-14 21:25:00,
2013-02-14 14:30:00,61.2,49.7,30.03,SSE,149,6.0,6.0,66,0.00,,,0.00,Wunderground v.1.15,2013-02-14 21:30:00,
2013-02-14 14:40:00,61.3,49.4,30.03,SE,127,7.0,10.0,65,0.00,,,0.00,Wunderground v.1.15,2013-02-14 21:40:00,
2013-02-14 14:45:00,61.4,50.3,30.03,SE,134,7.0,10.0,67,0.00,,,0.00,Wunderground v.1.15,2013-02-14 21:45:00,
2013-02-14 14:50:00,61.3,49.0,30.03,East,98,7.0,7.0,64,0.00,,,0.00,Wunderground v.1.15,2013-02-14 21:50:00,
2013-02-14 15:00:00,61.4,49.1,30.03,ESE,106,6.0,10.0,64,0.00,,,0.00,Wunderground v.1.15,2013-02-14 22:00:00,
2013-02-14 15:05:00,61.3,48.2,30.03,ESE,106,7.0,12.0,62,0.00,,,0.00,Wunderground v.1.15,2013-02-14 22:05:00,
2013-02-14 15:15:00,61.1,48.0,30.04,ESE,113,8.0,12.0,62,0.00,,,0.00,Wunderground v.1.15,2013-02-14 22:15:00,
2013-02-14 15:20:00,61.1,48.0,30.04,SSE,150,8.0,12.0,62,0.00,,,0.00,Wunderground v.1.15,2013-02-14 22:20:00,
2013-02-14 15:25:00,61.2,48.9,30.04,ESE,121,8.0,12.0,64,0.00,,,0.00,Wunderground v.1.15,2013-02-14 22:25:00,
2013-02-14 15:30:00,61.1,47.5,30.04,SSE,148,8.0,8.0,61,0.00,,,0.00,Wunderground v.1.15,2013-02-14 22:30:00,
2013-02-14 15:35:00,61.2,47.2,30.04,East,94,8.0,12.0,60,0.00,,,0.00,Wunderground v.1.15,2013-02-14 22:35:00,
2013-02-14 15:40:00,61.2,47.6,30.03,East,98,7.0,7.0,61,0.00,,,0.00,Wunderground v.1.15,2013-02-14 22:40:00,
2013-02-14 15:50:00,61.1,47.1,30.03,ENE,72,8.0,12.0,60,0.00,,,0.00,Wunderground v.1.15,2013-02-14 22:50:00,
2013-02-14 15:55:00,61.1,46.7,30.03,ESE,115,8.0,12.0,59,0.00,,,0.00,Wunderground v.1.15,2013-02-14 22:55:00,
2013-02-14 16:00:00,61.1,45.3,30.03,ESE,106,7.0,12.0,56,0.00,,,0.00,Wunderground v.1.15,2013-02-14 23:00:00,
2013-02-14 16:05:00,61.1,46.7,30.03,ESE,120,8.0,12.0,59,0.00,,,0.00,Wunderground v.1.15,2013-02-14 23:05:00,
2013-02-14 16:15:00,61.2,45.8,30.03,ESE,108,8.0,11.0,57,0.00,,,0.00,Wunderground v.1.15,2013-02-14 23:15:00,
2013-02-14 16:20:00,61.1,43.8,30.03,ESE,111,8.0,11.0,53,0.00,,,0.00,Wunderground v.1.15,2013-02-14 23:20:00,
2013-02-14 18:36:00,60.7,49.3,30.03,ESE,112,8.0,12.0,66,0.00,,,0.00,Wunderground v.1.15,2013-02-15 01:36:00,
2013-02-14 18:40:00,60.7,48.9,30.03,ESE,108,9.0,12.0,65,0.00,,,0.00,Wunderground v.1.15,2013-02-15 01:40:00,
2013-02-14 18:45:00,60.8,49.0,30.03,ESE,112,9.0,12.0,65,0.00,,,0.00,Wunderground v.1.15,2013-02-15 01:45:00,
2013-02-14 18:50:00,60.7,48.9,30.03,SE,131,9.0,12.0,65,0.00,,,0.00,Wunderground v.1.15,2013-02-15 01:50:00,
2013-02-14 18:55:00,60.7,48.4,30.02,ESE,106,9.0,12.0,64,0.00,,,0.00,Wunderground v.1.15,2013-02-15 01:55:00,
2013-02-14 19:05:00,60.8,49.0,30.03,East,91,9.0,14.0,65,0.00,,,0.00,Wunderground v.1.15,2013-02-15 02:05:00,
2013-02-14 19:10:00,60.7,48.4,30.02,ESE,115,9.0,14.0,64,0.00,,,0.00,Wunderground v.1.15,2013-02-15 02:10:00,
2013-02-14 19:15:00,60.8,48.5,30.03,ESE,107,10.0,14.0,64,0.00,,,0.00,Wunderground v.1.15,2013-02-15 02:15:00,
2013-02-14 19:20:00,60.8,49.4,30.03,SE,142,9.0,9.0,66,0.00,,,0.00,Wunderground v.1.15,2013-02-15 02:20:00,
2013-02-14 19:25:00,60.8,49.0,30.03,ESE,112,9.0,10.0,65,0.00,,,0.00,Wunderground v.1.15,2013-02-15 02:25:00,
2013-02-14 19:30:00,60.8,48.1,30.03,ESE,116,10.0,14.0,63,0.00,,,0.00,Wunderground v.1.15,2013-02-15 02:30:00,
2013-02-14 19:35:00,60.8,48.1,30.03,ESE,122,10.0,14.0,63,0.00,,,0.00,Wunderground v.1.15,2013-02-15 02:35:00,
2013-02-14 19:40:00,60.9,48.6,30.03,ESE,102,9.0,14.0,64,0.00,,,0.00,Wunderground v.1.15,2013-02-15 02:40:00,
2013-02-14 19:45:00,60.8,49.0,30.04,SE,131,9.0,14.0,65,0.00,,,0.00,Wunderground v.1.15,2013-02-15 02:45:00,
2013-02-14 19:50:00,60.8,49.8,30.04,ESE,105,9.0,14.0,67,0.00,,,0.00,Wunderground v.1.15,2013-02-15 02:50:00,
2013-02-14 19:55:00,60.8,49.4,30.04,ESE,122,9.0,14.0,66,0.00,,,0.00,Wunderground v.1.15,2013-02-15 02:55:00,
2013-02-14 20:00:00,60.9,49.9,30.04,ESE,105,10.0,14.0,67,0.00,,,0.00,Wunderground v.1.15,2013-02-15 03:00:00,
2013-02-14 20:05:00,60.8,49.0,30.04,ESE,106,10.0,14.0,65,0.00,,,0.00,Wunderground v.1.15,2013-02-15 03:05:00,
2013-02-14 20:10:00,60.8,49.8,30.04,ESE,103,10.0,10.0,67,0.00,,,0.00,Wunderground v.1.15,2013-02-15 03:10:00,
2013-02-14 20:15:00,60.8,50.2,30.04,ESE,105,9.0,12.0,68,0.00,,,0.00,Wunderground v.1.15,2013-02-15 03:15:00,
2013-02-14 20:20:00,60.8,49.8,30.04,ESE,123,10.0,14.0,67,0.00,,,0.00,Wunderground v.1.15,2013-02-15 03:20:00,
2013-02-14 20:25:00,60.9,49.9,30.04,ESE,118,10.0,14.0,67,0.00,,,0.00,Wunderground v.1.15,2013-02-15 03:25:00,
2013-02-14 20:30:00,60.8,49.4,30.04,ESE,106,10.0,10.0,66,0.00,,,0.00,Wunderground v.1.15,2013-02-15 03:30:00,
2013-02-14 20:35:00,60.9,49.5,30.04,East,93,11.0,13.0,66,0.00,,,0.00,Wunderground v.1.15,2013-02-15 03:35:00,
2013-02-14 20:40:00,61.0,51.1,30.05,ESE,108,11.0,15.0,70,0.00,,,0.00,Wunderground v.1.15,2013-02-15 03:40:00,
2013-02-14 20:45:00,60.8,50.6,30.05,East,91,10.0,15.0,69,0.00,,,0.00,Wunderground v.1.15,2013-02-15 03:45:00,
2013-02-14 20:50:00,60.9,51.0,30.05,East,101,10.0,14.0,70,0.00,,,0.00,Wunderground v.1.15,2013-02-15 03:50:00,
2013-02-14 20:55:00,60.9,50.7,30.05,East,96,10.0,14.0,69,0.00,,,0.00,Wunderground v.1.15,2013-02-15 03:55:00,
2013-02-14 21:00:00,60.9,50.3,30.05,ENE,71,10.0,14.0,68,0.00,,,0.00,Wunderground v.1.15,2013-02-15 04:00:00,
2013-02-14 21:05:00,60.9,50.3,30.05,SE,137,10.0,15.0,68,0.00,,,0.00,Wunderground v.1.15,2013-02-15 04:05:00,
2013-02-14 21:15:00,60.8,50.2,30.05,SE,129,10.0,15.0,68,0.00,,,0.00,Wunderground v.1.15,2013-02-15 04:15:00,
2013-02-14 21:20:00,60.8,50.2,30.05,ESE,109,10.0,10.0,68,0.00,,,0.00,Wunderground v.1.15,2013-02-15 04:20:00,
2013-02-14 21:25:00,60.9,50.3,30.05,ESE,122,10.0,15.0,68,0.00,,,0.00,Wunderground v.1.15,2013-02-15 04:25:00,
2013-02-14 21:30:00,60.9,51.0,30.05,ESE,111,10.0,10.0,70,0.00,,,0.00,Wunderground v.1.15,2013-02-15 04:30:00,
2013-02-14 21:35:00,60.8,50.6,30.05,East,84,10.0,12.0,69,0.00,,,0.00,Wunderground v.1.15,2013-02-15 04:35:00,
2013-02-14 21:40:00,60.8,50.6,30.05,ENE,63,10.0,10.0,69,0.00,,,0.00,Wunderground v.1.15,2013-02-15 04:40:00,
2013-02-14 21:45:00,60.9,51.0,30.05,ESE,106,10.0,15.0,70,0.00,,,0.00,Wunderground v.1.15,2013-02-15 04:45:00,
2013-02-14 21:50:00,60.9,51.0,30.05,East,89,10.0,16.0,70,0.00,,,0.00,Wunderground v.1.15,2013-02-15 04:50:00,
2013-02-14 21:55:00,60.9,51.0,30.05,SE,138,10.0,16.0,70,0.00,,,0.00,Wunderground v.1.15,2013-02-15 04:55:00,
2013-02-14 22:00:00,60.9,50.7,30.05,ESE,121,11.0,11.0,69,0.00,,,0.00,Wunderground v.1.15,2013-02-15 05:00:00,
2013-02-14 22:05:00,60.9,50.7,30.05,ESE,109,11.0,16.0,69,0.00,,,0.00,Wunderground v.1.15,2013-02-15 05:05:00,
2013-02-14 22:10:00,60.9,50.7,30.05,ESE,115,11.0,16.0,69,0.00,,,0.00,Wunderground v.1.15,2013-02-15 05:10:00,
2013-02-14 22:15:00,60.8,51.0,30.05,ESE,111,11.0,16.0,70,0.00,,,0.00,Wunderground v.1.15,2013-02-15 05:15:00,
2013-02-14 22:25:00,60.8,51.3,30.04,ESE,103,11.0,16.0,71,0.00,,,0.00,Wunderground v.1.15,2013-02-15 05:25:00,
2013-02-14 22:30:00,60.8,51.0,30.04,ESE,106,11.0,16.0,70,0.00,,,0.00,Wunderground v.1.15,2013-02-15 05:30:00,
2013-02-14 22:35:00,60.8,51.3,30.04,ESE,121,11.0,16.0,71,0.00,,,0.00,Wunderground v.1.15,2013-02-15 05:35:00,
2013-02-14 22:40:00,60.9,51.8,30.04,ESE,102,11.0,16.0,72,0.00,,,0.00,Wunderground v.1.15,2013-02-15 05:40:00,
2013-02-14 22:45:00,60.9,51.4,30.04,ESE,117,11.0,16.0,71,0.00,,,0.00,Wunderground v.1.15,2013-02-15 05:45:00,
2013-02-14 22:50:00,60.9,51.8,30.04,ESE,115,11.0,16.0,72,0.00,,,0.00,Wunderground v.1.15,2013-02-15 05:50:00,
2013-02-14 22:55:00,60.8,52.1,30.04,East,101,11.0,16.0,73,0.00,,,0.00,Wunderground v.1.15,2013-02-15 05:55:00,
2013-02-14 23:00:00,60.8,52.1,30.04,East,98,11.0,16.0,73,0.00,,,0.00,Wunderground v.1.15,2013-02-15 06:00:00,
2013-02-14 23:05:00,60.8,52.5,30.04,ESE,109,10.0,16.0,74,0.00,,,0.00,Wunderground v.1.15,2013-02-15 06:05:00,
2013-02-14 23:10:00,60.8,52.5,30.04,East,98,10.0,10.0,74,0.00,,,0.00,Wunderground v.1.15,2013-02-15 06:10:00,
2013-02-14 23:15:00,60.8,52.5,30.03,ESE,112,10.0,15.0,74,0.00,,,0.00,Wunderground v.1.15,2013-02-15 06:15:00,
2013-02-14 23:20:00,60.7,52.4,30.03,ESE,115,10.0,15.0,74,0.00,,,0.00,Wunderground v.1.15,2013-02-15 06:20:00,
2013-02-14 23:30:00,60.8,52.5,30.03,East,101,10.0,10.0,74,0.00,,,0.00,Wunderground v.1.15,2013-02-15 06:30:00,
2013-02-14 23:35:00,60.8,52.8,30.03,ESE,105,10.0,12.0,75,0.00,,,0.00,Wunderground v.1.15,2013-02-15 06:35:00,
2013-02-14 23:40:00,60.7,52.4,30.03,SE,138,9.0,15.0,74,0.00,,,0.00,Wunderground v.1.15,2013-02-15 06:40:00,
2013-02-14 23:45:00,60.8,52.5,30.04,ESE,121,10.0,15.0,74,0.00,,,0.00,Wunderground v.1.15,2013-02-15 06:45:00,
2013-02-14 23:50:00,60.8,52.5,30.04,ESE,121,11.0,15.0,74,0.00,,,0.00,Wunderground v.1.15,2013-02-15 06:50:00,
2013-02-14 23:55:00,60.9,52.2,30.04,ESE,123,10.0,15.0,73,0.00,,,0.00,Wunderground v.1.15,2013-02-15 06:55:00,